Powrót do katalogu

USA 453

AktywnyMilitariaVLEO
NORAD 62352·PAYLOAD·🇺🇸 United States

Wystrzelony Dec 17, 2024 z Vandenberg Space Force Base

Loading…

Następne Przeloty (najbliższe 24 godziny)

TLE

NieaktualneSource: Mike McCants

Epoka: Aug 15, 2026, 20:39 UTC

1 62352U 24243N   26227.86103591 0.00000000  00000-0  00000-0 0    08
2 62352  70.0200 132.1594 0004000  46.1502 313.8498 14.96713456    08

Śledź USA 453 w czasie rzeczywistym z AllMySat

Download on the App Store